[[{"header":{"parameterUnit":"m.s-1","parameterCategory":1,"la1":30.2991,"la2":30.254,"lo1":-89.0895,"lo2":-89.0444,"dy":0.0017,"dx":0.0017,"nx":28,"ny":28,"refTime":"2024-04-22T09:00:00:Z","depth":0,"parameterNumber":2,"parameterNumberName":"U-component_of_WINDS"},"data":[0,0,0,0,0,0,0,0,0,0,0,0,0,0,0,0,0,0,0,0,0,0,0,0,0,0,0,0,0,0,0,0,0,0,0,0,0,0,0,0,0,0,0,0,0,0,0,0,0,0,0,0,0,0,0,0,0,0,0.59,0.5899,0,0.5853,0.5852,0.5852,0.5817,0.5817,0.5817,0.5816,0.5767,0.5766,0.5765,0,0,0,0,0,0,0,0,0,0,0,0,0,0.5955,0.5955,0.59,0.5899,0.5898,0.5853,0.5852,0.5851,0.5817,0.5817,0.5816,0.5816,0.5767,0.5766,0.5764,0,0,0,0,0,0,0,0,0,0,0,0,0,0.5922,0.5954,0.59,0.5876,0.5873,0.5853,0.5852,0.5851,0.5817,0.5817,0.5816,0.5816,0.5767,0.5766,0.5764,0.5763,0,0,0.5759,0.5759,0,0,0,0,0,0,0,0,0.5924,0.592,0.588,0.5877,0.5875,0.584,0.5853,0.5822,0.5817,0.5838,0.5816,0.5816,0.5791,0.5788,0.578,0.5761,0.5759,0.5759,0.5758,0.5758,0.5757,0,0,0,0,0,0,0,0.5926,0.5922,0.5881,0.5879,0.5876,0.5866,0.5861,0.5847,0.5818,0.5837,0.5834,0.5829,0.579,0.5782,0.5778,0.5758,0.5759,0.5758,0.5757,0.5756,0.5731,0.5732,0,0,0,0,0,0,0.5933,0.5924,0.5882,0.588,0.5899,0.5865,0.586,0.5852,0.5818,0.5812,0.5829,0.5828,0.5784,0.578,0.5777,0.577,0.5758,0.5756,0.5755,0.5731,0.5731,0.5732,0,0,0,0,0,0,0.5934,0.593,0.5884,0.5901,0.5895,0.5865,0.5856,0.5851,0.5843,0.5813,0.5807,0.5827,0.5784,0.5779,0.5766,0.5768,0.5756,0.5754,0.5731,0.5731,0.5732,0.576,0,0,0,0,0,0,0.5936,0.593,0.5931,0.5901,0.5894,0.5876,0.5857,0.585,0.584,0.5837,0.5808,0.5803,0.5783,0.5769,0.5764,0.5766,0.5753,0.573,0.5731,0.5732,0.5759,0.5762,0.5764,0,0,0,0,0,0.5938,0.5941,0.5931,0.5926,0.5894,0.5876,0.5872,0.5849,0.5841,0.584,0.582,0.5804,0.5769,0.5768,0.5763,0.5764,0.573,0.5731,0.5731,0.5758,0.5761,0.5764,0,0,0,0,0,0,0.5972,0.5937,0.5925,0.5919,0.5901,0.5871,0.5869,0.5854,0.5837,0.5835,0.5807,0.5801,0.579,0.5776,0.5775,0.5759,0.5747,0.5747,0.5769,0.5772,0.5774,0.5778,0.5752,0,0,0,0,0,0.5979,0.5968,0.5938,0.5935,0.5927,0.5899,0.5891,0.5875,0.5854,0.5846,0.5826,0.5806,0.579,0.578,0.5764,0.5756,0.5748,0.5754,0.5757,0.5759,0.5759,0.575,0.5752,0.5734,0.5734,0.5734,0,0,0.5993,0.5972,0.5967,0.5941,0.5925,0.5913,0.5893,0.5882,0.5872,0.5845,0.5831,0.5814,0.579,0.5779,0.5773,0.5767,0.5762,0.576,0.5762,0.576,0.5751,0.5753,0.5754,0.5734,0.5734,0.5734,0,0,0.6011,0.5996,0.599,0.5974,0.595,0.5931,0.593,0.5901,0.5889,0.5875,0.5852,0.5839,0.5814,0.5796,0.5784,0.5792,0.5776,0.5788,0.58,0.5792,0.5794,0.5795,0.5796,0.5796,0.5788,0.5788,0.5788,0,0.6031,0.6014,0.599,0.5979,0.5967,0.5941,0.5933,0.5919,0.589,0.5882,0.5875,0.5839,0.5821,0.5804,0.5805,0.5797,0.5793,0.5791,0.5796,0.5797,0.5797,0.5797,0.5798,0.5789,0.5789,0.5789,0.5789,0,0.6038,0.6026,0.6024,0.5996,0.5984,0.5976,0.5948,0.5939,0.5923,0.5904,0.5888,0.5865,0.5842,0.5837,0.5822,0.5816,0.5813,0.5801,0.5789,0.5801,0.58,0.5801,0.5791,0.5791,0.579,0.579,0,0,0.6078,0.6036,0.6035,0.6021,0.5991,0.598,0.5968,0.5946,0.5937,0.5918,0.5906,0.5883,0.5871,0.5857,0.5839,0.5832,0.5837,0.5821,0.582,0.5823,0.5826,0.5835,0.5835,0.5826,0.5826,0.5826,0.5828,0,0.6091,0.607,0.6046,0.6033,0.602,0.5993,0.5983,0.5962,0.5944,0.5928,0.5907,0.5891,0.5877,0.5868,0.586,0.5838,0.5837,0.5838,0.5813,0.5812,0.5819,0.5836,0.5845,0.5848,0.5828,0.5828,0.5828,0,0.6103,0.6084,0.6069,0.6037,0.6031,0.6022,0.5998,0.5985,0.5959,0.5946,0.5929,0.5909,0.5894,0.5883,0.5859,0.586,0.5848,0.5835,0.5835,0.5831,0.582,0.5831,0.5849,0.5849,0.5828,0.5828,0.5828,0,0.6131,0.6101,0.6088,0.6077,0.604,0.6034,0.6018,0.5993,0.598,0.5958,0.5949,0.5926,0.5913,0.5895,0.5868,0.5864,0.5847,0.5835,0.5834,0.5834,0.5831,0.5832,0.5846,0.5825,0.5825,0.5825,0.5825,0,0.6146,0.6138,0.61,0.6091,0.608,0.6052,0.6041,0.6023,0.6,0.5986,0.5961,0.5948,0.5915,0.5897,0.5877,0.5859,0.5854,0.5841,0.5835,0.5843,0.5844,0.5834,0.5833,0.5825,0.5825,0.5825,0.5825,0,0.6175,0.615,0.6133,0.6099,0.609,0.6083,0.6053,0.6043,0.6022,0.6004,0.5999,0.5966,0.5944,0.5916,0.5885,0.5871,0.5855,0.5847,0.5863,0.586,0.586,0.586,0.5868,0.5867,0.5848,0.5848,0.5849,0,0.6187,0.6179,0.6144,0.6133,0.6118,0.6101,0.6087,0.6058,0.6045,0.6014,0.6006,0.5982,0.5962,0.5927,0.59,0.5875,0.5866,0.587,0.5862,0.5868,0.5863,0.5864,0.5862,0.5872,0.5873,0.5873,0.5873,0,0.6208,0.6195,0.6177,0.6153,0.6138,0.6118,0.6097,0.6089,0.6055,0.6041,0.6018,0.6002,0.5969,0.5945,0.5916,0.5898,0.5879,0.5876,0.5874,0.5881,0.589,0.5883,0.5868,0.5876,0.5875,0.5875,0.5875,0.5875,0.6227,0.6218,0.6191,0.6171,0.6152,0.6132,0.612,0.6097,0.6078,0.605,0.6034,0.6011,0.5982,0.5942,0.5924,0.5904,0.5898,0.5895,0.5895,0.5894,0.5896,0.5894,0.5899,0.5899,0.5899,0.5899,0.5899,0,0.6245,0.6227,0.6208,0.6179,0.6162,0.6147,0.6122,0.6108,0.6089,0.6064,0.6044,0.6016,0.5991,0.5961,0.5934,0.5924,0.5915,0.5918,0.5918,0.5913,0.5904,0.5908,0.5926,0.5926,0.5926,0.5926,0.5926,0.5926,0.6253,0.6237,0.622,0.6193,0.6174,0.6152,0.6138,0.6119,0.6099,0.6069,0.6049,0.603,0.6002,0.5972,0.5948,0.594,0.593,0.5936,0.5925,0.5917,0.5914,0.5912,0.5915,0.5934,0.5934,0.5935,0.5935,0.5935]},{"header":{"parameterUnit":"m.s-1","parameterCategory":1,"la1":30.2991,"la2":30.254,"lo1":-89.0895,"lo2":-89.0444,"dy":0.0017,"dx":0.0017,"nx":28,"ny":28,"refTime":"2024-04-22T09:00:00:Z","depth":0,"parameterNumber":3,"parameterNumberName":"V-component_of_WINDS"},"data":[0,0,0,0,0,0,0,0,0,0,0,0,0,0,0,0,0,0,0,0,0,0,0,0,0,0,0,0,0,0,0,0,0,0,0,0,0,0,0,0,0,0,0,0,0,0,0,0,0,0,0,0,0,0,0,0,0,0,2.9089,2.909,0,2.9174,2.9175,2.9176,2.9146,2.9144,2.9142,2.914,2.9223,2.9226,2.923,0,0,0,0,0,0,0,0,0,0,0,0,0,2.8894,2.8898,2.9089,2.909,2.9092,2.9174,2.9175,2.9176,2.9146,2.9144,2.9141,2.9139,2.9221,2.9226,2.9231,0,0,0,0,0,0,0,0,0,0,0,0,0,2.8979,2.8899,2.9089,2.9086,2.9087,2.9174,2.9175,2.9177,2.9146,2.9144,2.9141,2.9138,2.922,2.9225,2.9231,2.9325,0,0,2.9249,2.9252,0,0,0,0,0,0,0,0,2.8974,2.8986,2.9086,2.9087,2.9088,2.9147,2.9137,2.9226,2.9147,2.9124,2.914,2.9137,2.9199,2.9207,2.9229,2.9329,2.9332,2.925,2.9254,2.9256,2.9258,0,0,0,0,0,0,0,2.8968,2.8982,2.9123,2.9087,2.9088,2.9079,2.9088,2.9154,2.9176,2.9126,2.9124,2.9134,2.9199,2.9223,2.923,2.9333,2.925,2.9255,2.9259,2.9261,2.951,2.9512,0,0,0,0,0,0,2.8963,2.8978,2.912,2.9125,2.9023,2.9084,2.9094,2.913,2.9175,2.918,2.9137,2.9133,2.9214,2.9224,2.9233,2.9343,2.9256,2.9262,2.9265,2.9507,2.951,2.9514,0,0,0,0,0,0,2.8959,2.8976,2.9117,2.9051,2.9068,2.9091,2.9132,2.9134,2.9157,2.9184,2.9187,2.9157,2.9212,2.9225,2.9302,2.9345,2.9264,2.927,2.9503,2.9508,2.9512,2.9564,0,0,0,0,0,0,2.8953,2.8975,2.9012,2.9052,2.9072,2.9186,2.9134,2.9137,2.9168,2.9164,2.9204,2.9208,2.9211,2.9293,2.9307,2.9352,2.9274,2.9499,2.9505,2.951,2.9558,2.957,2.9579,0,0,0,0,0,2.8947,2.9023,2.9014,2.9032,2.912,2.9189,2.92,2.9203,2.9172,2.9208,2.9225,2.9207,2.9338,2.9301,2.9317,2.9364,2.9496,2.9503,2.951,2.9554,2.9567,2.9579,0,0,0,0,0,0,2.8987,2.9029,2.9019,2.9112,2.9147,2.9183,2.923,2.9218,2.9262,2.9255,2.9256,2.9266,2.9344,2.9362,2.9319,2.9454,2.9412,2.9423,2.944,2.9453,2.9464,2.9457,2.9279,0,0,0,0,0,2.9007,2.9061,2.9094,2.9172,2.9191,2.9207,2.9237,2.9237,2.9273,2.9287,2.9309,2.9343,2.9392,2.9424,2.947,2.9561,2.9567,2.9601,2.9611,2.962,2.9628,2.9674,2.9688,2.9536,2.9536,2.9536,0,0,2.9048,2.9078,2.9112,2.9181,2.9208,2.9262,2.922,2.9279,2.9318,2.9296,2.9369,2.9386,2.9424,2.9507,2.9545,2.9524,2.9672,2.9629,2.9635,2.9639,2.9682,2.9696,2.9709,2.9541,2.954,2.9539,0,0,2.915,2.918,2.9246,2.9274,2.9316,2.9326,2.9342,2.938,2.9391,2.9465,2.9448,2.9493,2.9578,2.9605,2.9629,2.9738,2.9722,2.9753,2.9808,2.9852,2.9864,2.9874,2.991,2.9923,2.9762,2.9762,2.9762,0,2.9196,2.9278,2.9282,2.9342,2.9371,2.9354,2.942,2.9446,2.9501,2.952,2.9497,2.9601,2.9625,2.9712,2.9739,2.9761,2.9776,2.9748,2.9862,2.9873,2.9883,2.9917,2.993,2.9766,2.9765,2.9765,2.9764,0,2.933,2.9387,2.9436,2.9489,2.9524,2.9587,2.9597,2.9632,2.9628,2.9639,2.9712,2.9741,2.9791,2.9812,2.9809,2.9898,2.9884,2.9862,2.9819,2.99,2.9932,2.9946,2.977,2.9769,2.9768,2.9767,0,0,2.9461,2.9514,2.9532,2.9554,2.9598,2.9641,2.9701,2.9751,2.9779,2.9817,2.9865,2.9936,2.9915,2.9942,2.9942,2.9981,3.0061,2.9953,2.9954,2.997,3.0157,3.0172,3.0188,3.0051,3.0054,3.0056,3.0153,0,2.9564,2.9672,2.9676,2.9773,2.9823,2.9806,2.9858,2.9889,2.9901,2.9943,2.9956,3.0005,2.9975,2.9991,3.003,3.0044,3.0098,3.0037,3.0093,3.0095,3.0082,3.0205,3.0221,3.0312,3.0166,3.0168,3.017,0,2.97,2.9741,2.9844,2.9877,2.9898,2.9945,2.9989,3.0032,3.0065,3.0071,3.0101,3.0093,3.0152,3.0108,3.0187,3.0145,3.0168,3.0178,3.0181,3.0185,3.0136,3.0209,3.0341,3.0354,3.019,3.0188,3.0187,0,2.9781,2.9863,2.9933,2.9953,2.9995,3.0028,3.0046,3.0077,3.0106,3.0144,3.0162,3.0207,3.023,3.0263,3.0267,3.0236,3.0345,3.0303,3.0348,3.0348,3.0371,3.0369,3.0506,3.039,3.039,3.039,3.0389,0,2.9895,2.9957,2.997,3.0013,3.0081,3.0084,3.015,3.0166,3.0193,3.0237,3.0225,3.0266,3.027,3.0311,3.0314,3.0377,3.0388,3.0392,3.0392,3.0392,3.0391,3.0406,3.0398,3.0393,3.0392,3.0392,3.0391,0,2.9996,3.0008,3.0083,3.0116,3.0126,3.0174,3.0201,3.0241,3.0251,3.0307,3.032,3.0335,3.0383,3.039,3.0446,3.0448,3.0522,3.0517,3.0511,3.0509,3.0554,3.0548,3.0703,3.0722,3.0596,3.0597,3.0598,0,3.0067,3.0115,3.0152,3.0181,3.0201,3.0249,3.0277,3.0281,3.0311,3.0351,3.0385,3.0432,3.0469,3.0546,3.0561,3.0603,3.0596,3.0648,3.0603,3.06,3.0594,3.059,3.0593,3.0656,3.0657,3.0658,3.0659,0,3.0191,3.0193,3.0236,3.0281,3.0316,3.0351,3.0383,3.0407,3.0414,3.0448,3.0498,3.0527,3.0583,3.0629,3.067,3.0686,3.0673,3.0673,3.0686,3.0685,3.0679,3.068,3.0532,3.0669,3.0668,3.0668,3.0667,3.0667,3.0277,3.0317,3.0349,3.0396,3.0421,3.0451,3.049,3.0504,3.0546,3.0592,3.0592,3.0644,3.0673,3.0727,3.0746,3.0786,3.0769,3.0788,3.0792,3.0796,3.0799,3.0674,3.0794,3.0794,3.0793,3.0793,3.0793,0,3.0397,3.0416,3.046,3.0506,3.0542,3.0528,3.0563,3.0593,3.064,3.0669,3.0706,3.076,3.0804,3.0821,3.0863,3.0891,3.0886,3.0902,3.0898,3.0902,3.0813,3.0797,3.0905,3.0905,3.0905,3.0905,3.0905,3.0905,3.0464,3.053,3.0536,3.0612,3.0631,3.0683,3.0704,3.073,3.0753,3.0815,3.0851,3.0862,3.0885,3.0928,3.0966,3.097,3.0985,3.1003,3.1004,3.092,3.0908,3.0898,3.0882,3.1007,3.1007,3.1089,3.1089,3.109]}]]